www.pogodaiklimat.ru

Погода и климат >> Архив погоды >> Россия >> Новгородская область >> Валдай


ПОГОДА в Валдае

  • Прогноз погоды в Валдае
  • Монитор погоды в Валдае
  • Климат города

АРХИВ ПОГОДЫ в Валдае

Время (UTC), дата Ветер
(напр.,м/с)
 
Видим.   Явления Облачность Т
(С)
Тd
(С)
f
(%)
Тe
(С)
Тes
(С)
Комфортность P
(гПа)
Po
(гПа)
Тmin
(С)
Tmax
(С)
R
(мм)
R24
(мм)
S
(см)
09 8.11 ЮВ 1 8000 м слабая морось 10/10 300 м
[St]
+2.6 +1.7 94 +1 +1 1025.2 1000.0
12 8.11 В 1 3800 м слабая морось 10/10 300 м
[St]
+2.6 +2.0 96 +1 +1 1025.0 999.8
15 8.11 ЮВ 2 2000 м слабая морось 10/10 300 м
[St]
+2.5 +2.1 97 -1 -1 1024.8 999.6 0.3
18 8.11 Ю 1 4000 м дымка {морось} 10/10 300 м
[St]
+2.4 +2.0 97 +1 +1 1025.0 999.8 +2.7 0.3
21 8.11 Ю 1 20 км в посл. час морось 10/10 300 м
[St]
+2.5 +1.9 96 +1 +1 1025.3 1000.1
00 9.11 ЮВ 1 20 км {морось} 10/10 300 м
[St]
+2.6 +2.0 96 +1 +1 1025.0 999.8
03 9.11 ЮВ 1 10 км слабая морось 10/10 300 м
[St]
+2.5 +1.8 95 +1 +1 1024.8 999.6 +2.4 0.0
06 9.11 ЮВ 2 9000 м слабая морось 10/10 300 м
[St]
+2.4 +1.5 94 -1 -1 1025.2 1000.0 +2.3 0.0
09 9.11 Ю 2 9000 м слабая морось 10/10 300 м
[St]
+2.7 +1.3 90 -1 -1 1025.7 1000.5
12 9.11 Ю 1 20 км в посл. час морось 10/10 300 м
[St]
+2.8 +1.4 90 +1 +1 1025.5 1000.3
15 9.11 Ю 2 4000 м морось 10/10 300 м
[St]
+2.3 +1.4 94 -1 -1 1025.4 1000.2 0.1
18 9.11 Ю 2 20 км {морось} 10/10 300 м
[St]
+2.1 +1.1 93 -1 -1 1025.3 1000.1 +2.9 0.1
21 9.11 Ю 1 20 км 10/10 300 м
[St]
+2.1 +1.1 93 0 0 1026.0 1000.8
00 10.11 Ю 2 20 км 10/10 300 м
[St]
+1.8 +0.5 91 -2 -2 1025.9 1000.6
03 10.11 ЮВ 2 10 км слабая морось 10/10 300 м
[St]
+1.8 +0.8 93 -2 -2 1025.9 1000.6 +1.7 0.0
06 10.11 Ю 2 20 км {ливн. осадки, морось} 10/10 300 м
[Cb cap]
+1.6 +0.6 93 -2 -2 1026.8 1001.5 +1.2 0.7
09 10.11 Ю 2 20 км {ливн. осадки} 10/10 300 м
[St]
+1.9 +0.3 89 -1 -1 1027.7 1002.4
12 10.11 ЮВ 3 8000 м слабый ливневой снег 10/10 300 м
[Cb cap]
+1.2 0.0 92 -3 -3 1028.5 1003.1
15 10.11 Ю 2 20 км {ливн. осадки} 10/10 600 м
[Cb cap]
+1.3 -0.5 88 -2 -2 1029.7 1004.3 0.7
18 10.11 ЮВ 2 20 км {ливн. осадки} 10/10 600 м
[Cb cap]
+0.9 -0.6 90 -3 -3 1031.3 1005.8 +1.9 0.0
21 10.11 ЮВ 2 4000 м слабый ливневой дождь со снегом 10/10 300 м
[Cb cap]
+1.2 +0.1 92 -2 -2 1032.8 1007.3
00 11.11 Ю 3 20 км {ливн. осадки, морось} 10/10 300 м
[St]
+1.2 -0.2 90 -3 -3 1034.2 1008.7
03 11.11 Ю 2 10 км слабая морось 10/10 300 м
[St]
+1.0 -0.2 92 -3 -3 1035.1 1009.5 +0.9 0.0
06 11.11 Ю 3
{10}
4800 м слабый ливневой дождь со снегом {морось} 10/10 300 м
[Cb cap]
+0.6 -0.5 92 -4 -4 1036.6 1010.9 +0.5 0.0
09 11.11 Ю 3
{10}
20 км {ливн. осадки} 10/10 600 м
[Cb cap]
+0.3 -1.4 88 -4 -4 1037.9 1012.2
12 11.11 Ю 3
{10}
20 км {ливн. осадки} 10/10 600 м
[Cb cap]
+0.6 -2.1 82 -4 -4 1038.6 1012.9
15 11.11 Ю 5-10
{10}
20 км 9/8 600 м
[Sc Ac und]
-0.1 -3.6 77 -6 -6 1039.4 1013.6 0.0
18 11.11 Ю 4
{10}
20 км 9/9 600 м
[Sc]
-0.9 -5.0 74 -6 -6 1039.5 1013.6 +0.7 0.0
21 11.11 Ю 4
{10}
20 км 10/10 600 м
[Sc]
-1.0 -6.5 66 -6 -6 1039.5 1013.6
00 12.11 Ю 5
{11}
20 км 10/10 300 м
[St]
-1.0 -5.4 72 -7 -7 1039.0 1013.1
03 12.11 Ю 4
{11}
20 км 10/10 300 м
[St]
-1.4 -6.0 71 -7 -7 1038.7 1012.8 -1.4
06 12.11 Ю 4 20 км 9/9 300 м
[St]
-3.6 -7.4 75 -10 -10 1039.0 1012.9 -3.7
09 12.11 Ю 4
{10}
20 км 9/9 600 м
[Sc]
-2.7 -7.4 70 -8 -8 1037.8 1011.8
12 12.11 Ю 5
{11}
20 км 10/10 600 м
[Sc]
-2.1 -6.9 70 -8 -8 1036.9 1011.0
15 12.11 Ю 5
{10}
20 км 10/10 600 м
[Sc]
-1.1 -6.7 66 -7 -7 1036.2 1010.4
18 12.11 Ю 5
{11}
20 км 10/10 600 м
[Cb cap]
-1.8 -7.4 66 -8 -8 1035.4 1009.5 -1.0
21 12.11 ЮЗ 5
{10}
20 км 10/10 600 м
[Cb cap]
-2.0 -7.6 65 -8 -8 1034.9 1009.0
00 13.11 ЮЗ 4 20 км 10/10 600 м
[Cb cap]
-1.5 -6.1 71 -7 -7 1033.2 1007.4
03 13.11 ЮЗ 4 20 км {ливн. осадки} 10/10 600 м
[Cb cap]
-0.8 -4.6 75 -6 -6 1031.4 1005.7 -2.0 0.0
06 13.11 Ю 4-10
{10}
10 км слабый ливневой дождь 10/10 600 м
[Cb cap]
-0.9 -4.3 78 -6 -6 1029.2 1003.6 -2.0 0.0
09 13.11 ЮЗ 4
{10}
8000 м слабый ливневой дождь 10/10 300 м
[Cb cap]
-0.4 -1.9 90 -6 -6 1027.2 1001.7
12 13.11 ЮЗ 5
{10}
20 км {ливн. осадки} 10/10 600 м
[Cb cap]
+0.1 -1.5 89 -6 -6 1025.1 999.7
15 13.11 ЮЗ 5
{11}
20 км 10/10 600 м
[Cb cap]
+0.2 -2.2 84 -6 -6 1023.9 998.5 1
18 13.11 ЮЗ 4
{10}
10 км слабый ливневой дождь 10/10 600 м
[Cb cap]
+0.3 -2.4 82 -5 -5 1023.0 997.7 +0.5 1
21 13.11 ЮЗ 3 10 км слабый ливневой дождь 10/10 300 м
[Cb cap]
-0.3 -2.1 88 -5 -5 1022.4 997.0
00 14.11 ЮЗ 2 4000 м переохл. дождь (гололёд) {ливн. осадки} 10/10 300 м
[Frnb Ns]
-0.2 -1.7 90 -4 -4 1021.1 995.7
03 14.11 ЮЗ 2 4000 м снег {ливн. осадки} 10/10 300 м
[Frnb Ns]
-0.9 -1.4 96 -5 -5 1020.3 994.9 -0.9 8
06 14.11 ЮЗ 1 5000 м снег {дождь} 10/10 300 м
[Frnb Ns]
-1.2 -1.7 96 -4 -4 1020.3 994.9 -1.2 9 6
09 14.11 ЮЗ 1 4800 м снег 10/10 300 м
[Frnb Ns]
-1.4 -2.0 96 -4 -4 1020.8 995.4
12 14.11 ЮЗ 1 1400 м сильный снег 10/10 300 м
[Frnb Ns]
-1.7 -2.2 96 -4 -4 1021.8 996.3
15 14.11 ЮЗ 1 1000 м сильный снег 10/10 300 м
[Frnb Ns]
-2.2 -2.8 96 -5 -5 1023.3 997.7 9
18 14.11 ЮЗ 1 4000 м слабый снег 10/10 300 м
[Frnb Ns]
-2.3 -2.9 96 -5 -5 1024.8 999.2 -1.1 9
21 14.11 Ю 1 4000 м слабый снег 10/10 300 м
[Frnb Ns]
-2.4 -3.0 96 -5 -5 1026.5 1000.8
00 15.11 ЮЗ 1 4000 м слабый снег 10/10 300 м
[Frnb Ns]
-2.5 -3.1 96 -5 -5 1028.1 1002.4
03 15.11 Ю 1 10 км слабый снег 10/8 600 м
[Sc As op]
-2.5 -3.1 96 -5 -5 1030.0 1004.2 -2.6 4

 

Местоположение метеостанции Валдай (Новгородская область, Россия): широта 57.99 долгота 33.25 высота над уровнем моря 195 м.

В архиве по умолчанию представлена погода в Валдае за последнюю неделю. Архивные данные за месяц целиком и за предыдущие месяцы, начиная с января 2011 года, Вы можете получить, выбрав интересующий диапазон дат из раскрывающегося списка и нажав кнопку "Ввод!".


*Определитесь, кто Вы:
робот инопланетянин человек

Внимание! Время в таблицах - всемирное. Для получения местного времени необходимо прибавить поправку, которая в Валдае равна 3 ч.

Смотрите также архив погоды в соседних городах и на ближайших метеорологических станциях:

Погода в Окуловке (Новгородская область, Россия) (42 км)
Погода в Бологом (Тверская область, Россия) (48 км)
Погода в Крестцах (Новгородская область, Россия) (53 км)
Погода в Демянске (Новгородская область, Россия) (60 км)
Погода в Боровичах (Новгородская область, Россия) (61 км)
Погода в Вышнем Волочке (Тверская область, Россия) (93 км)
Погода в Осташкове (Тверская область, Россия) (98 км)
Погода в Удомле (Тверская область, Россия) (105 км)
Погода в Охонах (Новгородская область, Россия) (110 км)
Погода в Старой Руссе (Новгородская область, Россия) (114 км)

Пояснения к столбцам:

Ветер - указаны скорость ветра в м/с - средняя за 10 мин, порывы в срок и между сроками (в фигурных скобках) и направление, откуда дует ветер: С - северный, СВ - северо-восточный, В - восточный, ЮВ - юго-восточный, Ю - южный, ЮЗ - юго-западный, З - западный, СЗ - северо-западный.
Видимость - горизонтальная дальность видимости в метрах или километрах. При видимости от 1 до 10 км при отсутствии осадков обычно наблюдается дымка, при ухудшении видимости до 1 км и менее - туман. В сухую погоду видимость может ухудшаться дымом, пылью или мглою.
Явления - указаны атмосферные явления, наблюдавшиеся в срок или в последний час перед сроком; фигурными скобками обозначены явления, наблюдавшиеся между сроками (за 1-3 часа до срока); квадратными скобками обозначены град или гололедные отложения с указанием их диаметра в мм.
Облачность - указаны через наклонную черту общая и нижняя облачность в баллах и высота нижней границы облаков в метрах; квадратными скобками обозначены формы облаков: Ci - перистые, Cs - перисто-слоистые, Cc - перисто-кучевые, Ac - высококучевые, As - высокослоистые, Sc - слоисто-кучевые, Ns - слоисто-дождевые, Cu - кучевые, Cb - кучево-дождевые. Подробнее классификацию облаков см. в Атласе облаков (PDF).
T - Температура воздуха - температура, измеренная на высоте 2 м над землей.
Td - Температура точки росы - температура, при понижении до которой содержащийся в воздухе водяной пар достигнет насыщения.
f - Относительная влажность воздуха - влажноcть воздуха, измеренная на высоте 2 м над землей.
Te - Эффективная температура - температура, которую ощущает одетый по сезону человек в тени. Характеристика душности погоды. При расчете учитывается влияние влажности воздуха и скорости ветра на теплоощущения человека.
Tes - Эффективная температура на солнце - температура, которую ощущает человек, с поправкой на солнечный нагрев. Характеристика знойности погоды. Зависит от высоты солнца над горизонтом, облачности и скорости ветра. Ночью, в пасмурную погоду, а также при ветре 12 м/с и более поправка равна нулю.
P - Атмосферное давление - приведенное к уровню моря атмосферное давление.
Po - Атмосферное давление - измеренное на уровне метеостанции атмосферное давление.
Tmin - Минимальная температура - минимум температуры воздуха на высоте 2 м над землей.
Tmax - Максимальная температура - максимум температуры воздуха на высоте 2 м над землей.
R - Количество осадков - Количество выпавших осадков за период времени, мм. При наведении курсора мыши на число - период времени, за который выпало указанное количество осадков.
R24 - Количество осадков - Количество выпавших осадков за 24 часа, мм.
S - Снежный покров - Высота снежного покрова, см. При наведении курсора мыши на число - состояние снежного покрова и степень покрытия местности в баллах.